Flag for China Weather past 2 weeks in Hohhot, Inner Mongolia, China

Now
86 °F

Passing clouds.


Feels Like: 89 °F
Forecast: 67 / 90 °F
Wind: 3 mph from Southwest

Location: Hohhot Airport

Current Time: Aug 1, 2014 at 4:22:05 PM

Latest Report: Aug 1, 2014 at 3:00 PM


Visibility: N/A

Pressure: 29.80 "Hg

Humidity: 55%

Dew point: 68 °F

Location of HohhotLocation

Historic Weather in Hohhot — Graph

°F

Hohhot temperature yesterday

Maximum temperature yesterday: 88 °F (at 1:00 PM)
Minimum temperature yesterday: 61 °F (at 6:00 AM)
Average temperature yesterday: 74 °F

Past Weeks' High & Low Weather Summary

 TemperatureHumidityPressure
High93 °F (Jul 18, 4:00 PM)100% (Jul 22, 6:00 AM)30.01 "Hg (Jul 22, 6:00 AM)
Low55 °F (Jul 25, 5:00 AM)33% (Jul 26, 3:00 PM)29.65 "Hg (Jul 28, 6:00 PM)
Average74 °F66%29.86 "Hg
* Reported Jul 17 3:00 PM — Aug 1 3:00 PM, Hohhot, Weather by CustomWeather, © 2014

Note: Actual official high and low records may vary slightly from our data, if they occured in-between our weather recording intervals... More about our weather records

Advertising

Hohhot weather history for previous 24 hours

 ConditionsComfort  
Time TempWeatherWind HumidityBarometerVisibility
3:00 PM
Aug 1
86 °FPassing clouds.3 mph55%29.80 "HgN/A
2:00 PM84 °FSunny.3 mph58%29.83 "Hg10 mi
1:00 PM82 °FSunny.3 mph58%29.83 "Hg10 mi
12:00 PM81 °FSunny.1 mph58%29.86 "Hg10 mi
11:00 AM79 °FSunny.3 mph61%29.89 "Hg10 mi
10:00 AM77 °FSunny.1 mph65%29.89 "Hg10 mi
9:00 AM73 °FSunny.1 mph74%29.89 "Hg10 mi
8:00 AM72 °FSunny.1 mph78%29.86 "Hg10 mi
7:00 AM66 °FSunny.3 mph88%29.86 "Hg10 mi
6:00 AM63 °FSunny.1 mph100%29.83 "Hg10 mi
5:00 AM64 °FClear.1 mph94%29.83 "Hg10 mi
4:00 AM63 °FClear.3 mph100%29.83 "Hg10 mi
3:00 AM64 °FClear.3 mph94%29.83 "Hg10 mi
2:00 AM64 °FClear.1 mph100%29.83 "Hg10 mi
1:00 AM66 °FClear.3 mph94%29.86 "Hg10 mi
12:00 AM68 °FPassing clouds.3 mph88%29.86 "HgN/A
11:00 PM
Jul 31
66 °FSprinkles. Passing clouds.8 mph100%29.83 "HgN/A
10:00 PM66 °FSprinkles. Passing clouds.8 mph100%29.92 "HgN/A
9:00 PM70 °FThunderstorms. Passing clouds.3 mph83%29.92 "HgN/A
8:00 PM72 °FThunderstorms. Passing clouds.20 mph73%29.83 "HgN/A
7:00 PM77 °FThunderstorms. Scattered clouds.36 mph61%29.80 "Hg5 mi
6:00 PM82 °FPassing clouds.6 mph66%29.74 "HgN/A
5:00 PM84 °FPassing clouds.1 mph58%29.74 "HgN/A
4:00 PM82 °FPassing clouds.3 mph62%29.77 "HgN/A
Weather by CustomWeather, © 2014

See weather overviewHow to use our weather pages